Time,TemperatureF,DewpointF,PressureIn,WindDirection,WindDirectionDegrees,WindSpeedMPH,WindSpeedGustMPH,Humidity,HourlyPrecipIn,Conditions,Clouds,dailyrainin,SoftwareType,DateUTC
2013-08-18 00:00:00,77.8,53.5,29.88,NE,42,0.0,0.0,43,0.00,CLR,SCT,0.00,WeatherDisplay:10.37,2013-08-18 07:00:00,
2013-08-18 00:05:00,77.4,53.8,29.88,NE,50,0.4,0.0,44,0.00,CLR,SCT,0.00,WeatherDisplay:10.37,2013-08-18 07:05:00,
2013-08-18 00:10:00,77.1,53.5,29.88,NE,50,0.0,0.0,44,0.00,CLR,SCT,0.00,WeatherDisplay:10.37,2013-08-18 07:10:00,
2013-08-18 00:15:00,76.8,53.8,29.88,NE,50,0.0,0.0,45,0.00,CLR,SCT,0.00,WeatherDisplay:10.37,2013-08-18 07:15:00,
2013-08-18 00:20:00,76.4,53.5,29.88,NE,52,0.0,0.0,45,0.00,CLR,SCT,0.00,WeatherDisplay:10.37,2013-08-18 07:20:00,
2013-08-18 00:25:00,76.2,53.9,29.88,NE,52,0.0,0.0,46,0.00,CLR,SCT,0.00,WeatherDisplay:10.37,2013-08-18 07:25:00,
2013-08-18 00:30:00,76.3,52.8,29.89,NNE,27,0.0,0.0,44,0.00,CLR,SCT,0.00,WeatherDisplay:10.37,2013-08-18 07:30:00,
2013-08-18 00:35:00,76.2,53.9,29.89,NNE,27,0.0,0.0,46,0.00,CLR,SCT,0.00,WeatherDisplay:10.37,2013-08-18 07:35:00,
2013-08-18 00:40:00,75.7,53.4,29.89,NNE,27,0.0,0.0,46,0.00,CLR,SCT,0.00,WeatherDisplay:10.37,2013-08-18 07:40:00,
2013-08-18 00:45:00,75.3,52.5,29.89,NNE,24,0.0,0.0,45,0.00,CLR,SCT,0.00,WeatherDisplay:10.37,2013-08-18 07:45:00,
2013-08-18 00:50:00,75.3,51.9,29.89,WNW,293,0.0,1.2,44,0.00,CLR,SCT,0.00,WeatherDisplay:10.37,2013-08-18 07:50:00,
2013-08-18 00:55:00,75.5,52.1,29.89,NW,315,0.2,1.2,44,0.00,CLR,SCT,0.00,WeatherDisplay:10.37,2013-08-18 07:55:00,
2013-08-18 01:00:00,75.7,52.8,29.89,NNW,331,0.1,1.2,45,0.00,CLR,SCT,0.00,WeatherDisplay:10.37,2013-08-18 08:00:00,
2013-08-18 01:05:00,75.7,53.4,29.89,NNW,333,0.0,0.0,46,0.00,CLR,SCT,0.00,WeatherDisplay:10.37,2013-08-18 08:05:00,
2013-08-18 01:10:00,75.5,53.9,29.89,NW,322,0.0,0.0,47,0.00,CLR,SCT,0.00,WeatherDisplay:10.37,2013-08-18 08:10:00,
2013-08-18 01:15:00,75.4,54.3,29.89,NW,322,0.0,0.0,48,0.00,CLR,SCT,0.00,WeatherDisplay:10.37,2013-08-18 08:15:00,
2013-08-18 01:20:00,75.3,54.3,29.89,NW,321,0.0,0.0,48,0.00,CLR,SCT,0.00,WeatherDisplay:10.37,2013-08-18 08:20:00,
2013-08-18 01:25:00,74.7,54.3,29.89,WNW,298,0.0,0.0,49,0.00,CLR,SCT,0.00,WeatherDisplay:10.37,2013-08-18 08:25:00,
2013-08-18 01:30:00,74.3,54.5,29.89,WNW,298,0.0,1.2,50,0.00,CLR,SCT,0.00,WeatherDisplay:10.37,2013-08-18 08:30:00,
2013-08-18 01:35:00,74.0,54.2,29.89,NW,315,1.2,3.5,50,0.00,CLR,SCT,0.00,WeatherDisplay:10.37,2013-08-18 08:35:00,
2013-08-18 01:40:00,73.9,54.6,29.89,WNW,296,0.0,0.0,51,0.00,CLR,SCT,0.00,WeatherDisplay:10.37,2013-08-18 08:40:00,
2013-08-18 01:45:00,73.7,54.4,29.90,WNW,288,0.0,0.0,51,0.00,CLR,SCT,0.00,WeatherDisplay:10.37,2013-08-18 08:45:00,
2013-08-18 01:50:00,73.5,54.8,29.90,WNW,288,0.0,0.0,52,0.00,CLR,SCT,0.00,WeatherDisplay:10.37,2013-08-18 08:50:00,
2013-08-18 01:55:00,73.3,55.1,29.89,WNW,288,0.1,1.2,53,0.00,CLR,SCT,0.00,WeatherDisplay:10.37,2013-08-18 08:55:00,
2013-08-18 02:00:00,73.1,54.9,29.89,West,261,0.0,0.0,53,0.00,CLR,SCT,0.00,WeatherDisplay:10.37,2013-08-18 09:00:00,
2013-08-18 02:05:00,73.2,54.5,29.89,West,281,0.5,3.5,52,0.00,CLR,SCT,0.00,WeatherDisplay:10.37,2013-08-18 09:05:00,
2013-08-18 02:10:00,73.5,54.8,29.89,WNW,283,0.1,1.2,52,0.00,CLR,SCT,0.00,WeatherDisplay:10.37,2013-08-18 09:10:00,
2013-08-18 02:15:00,73.8,54.5,29.89,West,261,0.0,0.0,51,0.00,CLR,SCT,0.00,WeatherDisplay:10.37,2013-08-18 09:15:00,
2013-08-18 02:20:00,73.8,54.5,29.89,West,266,0.3,3.5,51,0.00,CLR,SCT,0.00,WeatherDisplay:10.37,2013-08-18 09:20:00,
2013-08-18 02:25:00,73.9,54.1,29.89,West,266,0.0,0.0,50,0.00,CLR,SCT,0.00,WeatherDisplay:10.37,2013-08-18 09:25:00,
2013-08-18 02:30:00,74.0,54.2,29.89,West,265,0.0,0.0,50,0.00,CLR,SCT,0.00,WeatherDisplay:10.37,2013-08-18 09:30:00,
2013-08-18 02:35:00,74.0,54.2,29.88,West,265,0.1,1.2,50,0.00,CLR,SCT,0.00,WeatherDisplay:10.37,2013-08-18 09:35:00,
2013-08-18 02:40:00,73.9,54.1,29.89,West,268,0.1,1.2,50,0.00,CLR,SCT,0.00,WeatherDisplay:10.37,2013-08-18 09:40:00,
2013-08-18 02:45:00,73.7,54.4,29.89,West,268,0.0,0.0,51,0.00,CLR,SCT,0.00,WeatherDisplay:10.37,2013-08-18 09:45:00,
2013-08-18 02:50:00,73.5,54.3,29.88,West,270,0.0,0.0,51,0.00,CLR,SCT,0.00,WeatherDisplay:10.37,2013-08-18 09:50:00,
2013-08-18 02:55:00,73.3,54.1,29.88,West,270,0.0,0.0,51,0.00,CLR,SCT,0.00,WeatherDisplay:10.37,2013-08-18 09:55:00,
2013-08-18 03:00:00,73.3,54.1,29.88,West,270,0.0,0.0,51,0.00,CLR,SCT,0.00,WeatherDisplay:10.37,2013-08-18 10:00:00,
2013-08-18 03:05:00,73.1,53.9,29.88,West,270,0.0,0.0,51,0.00,CLR,SCT,0.00,WeatherDisplay:10.37,2013-08-18 10:05:00,
2013-08-18 03:10:00,72.8,54.1,29.88,West,270,0.0,0.0,52,0.00,CLR,SCT,0.00,WeatherDisplay:10.37,2013-08-18 10:10:00,
2013-08-18 03:15:00,72.4,53.8,29.88,West,270,0.0,0.0,52,0.00,CLR,SCT,0.00,WeatherDisplay:10.37,2013-08-18 10:15:00,
2013-08-18 03:20:00,72.1,54.0,29.88,West,270,0.0,0.0,53,0.00,CLR,SCT,0.00,WeatherDisplay:10.37,2013-08-18 10:20:00,
2013-08-18 03:25:00,71.8,54.3,29.88,West,270,0.0,0.0,54,0.00,CLR,SCT,0.00,WeatherDisplay:10.37,2013-08-18 10:25:00,
2013-08-18 03:30:00,71.4,53.9,29.88,West,270,0.0,0.0,54,0.00,CLR,SCT,0.00,WeatherDisplay:10.37,2013-08-18 10:30:00,
2013-08-18 03:35:00,71.1,54.1,29.88,West,270,0.1,1.2,55,0.00,CLR,SCT,0.00,WeatherDisplay:10.37,2013-08-18 10:35:00,
2013-08-18 03:40:00,70.7,53.7,29.88,West,270,0.0,0.0,55,0.00,CLR,SCT,0.00,WeatherDisplay:10.37,2013-08-18 10:40:00,
2013-08-18 03:45:00,70.4,54.0,29.88,West,270,0.0,0.0,56,0.00,CLR,SCT,0.00,WeatherDisplay:10.37,2013-08-18 10:45:00,
2013-08-18 03:50:00,70.1,54.2,29.87,West,270,0.0,0.0,57,0.00,CLR,SCT,0.00,WeatherDisplay:10.37,2013-08-18 10:50:00,
2013-08-18 03:55:00,69.9,54.0,29.88,West,270,0.0,0.0,57,0.00,CLR,SCT,0.00,WeatherDisplay:10.37,2013-08-18 10:55:00,
2013-08-18 04:00:00,69.8,53.9,29.87,West,270,0.0,0.0,57,0.00,CLR,SCT,0.00,WeatherDisplay:10.37,2013-08-18 11:00:00,
2013-08-18 04:05:00,69.6,53.7,29.88,West,270,0.0,0.0,57,0.00,CLR,SCT,0.00,WeatherDisplay:10.37,2013-08-18 11:05:00,
2013-08-18 04:10:00,69.4,53.5,29.87,West,270,0.0,0.0,57,0.00,CLR,SCT,0.00,WeatherDisplay:10.37,2013-08-18 11:10:00,
2013-08-18 04:15:00,69.3,53.9,29.87,West,270,0.0,0.0,58,0.00,CLR,SCT,0.00,WeatherDisplay:10.37,2013-08-18 11:15:00,
2013-08-18 04:20:00,69.2,53.8,29.87,West,270,0.0,0.0,58,0.00,CLR,SCT,0.00,WeatherDisplay:10.37,2013-08-18 11:20:00,
2013-08-18 04:25:00,69.1,54.2,29.87,West,270,0.0,0.0,59,0.00,CLR,SCT,0.00,WeatherDisplay:10.37,2013-08-18 11:25:00,
2013-08-18 04:30:00,68.8,54.3,29.87,West,270,0.0,0.0,60,0.00,CLR,SCT,0.00,WeatherDisplay:10.37,2013-08-18 11:30:00,
2013-08-18 04:35:00,68.6,54.2,29.87,West,270,0.0,0.0,60,0.00,CLR,SCT,0.00,WeatherDisplay:10.37,2013-08-18 11:35:00,
2013-08-18 04:40:00,68.2,54.2,29.87,West,270,0.0,0.0,61,0.00,CLR,SCT,0.00,WeatherDisplay:10.37,2013-08-18 11:40:00,
2013-08-18 04:45:00,67.8,53.9,29.87,West,270,0.0,0.0,61,0.00,CLR,SCT,0.00,WeatherDisplay:10.37,2013-08-18 11:45:00,
2013-08-18 04:50:00,67.4,54.4,29.88,West,270,0.0,0.0,63,0.00,CLR,SCT,0.00,WeatherDisplay:10.37,2013-08-18 11:50:00,
2013-08-18 04:55:00,67.0,54.4,29.88,West,270,0.0,0.0,64,0.00,CLR,SCT,0.00,WeatherDisplay:10.37,2013-08-18 11:55:00,
2013-08-18 05:00:00,66.6,54.5,29.88,West,270,0.0,0.0,65,0.00,CLR,SCT,0.00,WeatherDisplay:10.37,2013-08-18 12:00:00,
2013-08-18 05:05:00,66.6,54.0,29.88,West,270,0.0,0.0,64,0.00,CLR,SCT,0.00,WeatherDisplay:10.37,2013-08-18 12:05:00,
2013-08-18 05:10:00,66.7,54.1,29.88,West,270,0.0,0.0,64,0.00,CLR,SCT,0.00,WeatherDisplay:10.37,2013-08-18 12:10:00,
2013-08-18 05:15:00,66.9,53.9,29.88,West,270,0.0,0.0,63,0.00,CLR,SCT,0.00,WeatherDisplay:10.37,2013-08-18 12:15:00,
2013-08-18 05:20:00,67.0,54.0,29.88,West,270,0.0,0.0,63,0.00,CLR,SCT,0.00,WeatherDisplay:10.37,2013-08-18 12:20:00,
2013-08-18 05:25:00,67.0,54.4,29.89,West,270,0.0,0.0,64,0.00,CLR,SCT,0.00,WeatherDisplay:10.37,2013-08-18 12:25:00,
2013-08-18 05:30:00,66.9,54.3,29.89,West,270,0.0,0.0,64,0.00,CLR,SCT,0.00,WeatherDisplay:10.37,2013-08-18 12:30:00,
2013-08-18 05:35:00,66.9,54.3,29.89,West,270,0.0,0.0,64,0.00,CLR,SCT,0.00,WeatherDisplay:10.37,2013-08-18 12:35:00,
2013-08-18 05:40:00,67.0,54.4,29.89,West,270,0.0,0.0,64,0.00,CLR,SCT,0.00,WeatherDisplay:10.37,2013-08-18 12:40:00,
2013-08-18 05:45:00,67.0,54.0,29.90,West,270,0.0,0.0,63,0.00,CLR,SCT,0.00,WeatherDisplay:10.37,2013-08-18 12:45:00,
2013-08-18 05:50:00,67.0,54.4,29.90,West,270,0.0,0.0,64,0.00,CLR,SCT,0.00,WeatherDisplay:10.37,2013-08-18 12:50:00,
2013-08-18 05:55:00,66.7,54.6,29.90,West,270,0.0,0.0,65,0.00,CLR,SCT,0.00,WeatherDisplay:10.37,2013-08-18 12:55:00,
2013-08-18 06:00:00,66.5,54.4,29.90,West,270,0.0,0.0,65,0.00,CLR,SCT,0.00,WeatherDisplay:10.37,2013-08-18 13:00:00,
2013-08-18 06:05:00,66.4,55.1,29.91,West,270,0.0,0.0,67,0.00,CLR,SCT,0.00,WeatherDisplay:10.37,2013-08-18 13:05:00,
2013-08-18 06:10:00,66.4,54.7,29.91,West,270,0.0,0.0,66,0.00,CLR,SCT,0.00,WeatherDisplay:10.37,2013-08-18 13:10:00,
2013-08-18 06:15:00,66.4,55.1,29.91,West,270,0.0,0.0,67,0.00,CLR,SCT,0.00,WeatherDisplay:10.37,2013-08-18 13:15:00,
2013-08-18 06:20:00,66.5,55.6,29.91,West,270,0.0,0.0,68,0.00,CLR,SCT,0.00,WeatherDisplay:10.37,2013-08-18 13:20:00,
2013-08-18 06:25:00,66.6,56.1,29.91,West,270,0.0,0.0,69,0.00,CLR,SCT,0.00,WeatherDisplay:10.37,2013-08-18 13:25:00,
2013-08-18 06:30:00,66.7,56.2,29.91,West,270,0.0,0.0,69,0.00,CLR,SCT,0.00,WeatherDisplay:10.37,2013-08-18 13:30:00,
2013-08-18 06:35:00,66.8,57.1,29.91,West,270,0.0,0.0,71,0.00,CLR,SCT,0.00,WeatherDisplay:10.37,2013-08-18 13:35:00,
2013-08-18 06:40:00,66.9,57.2,29.91,West,270,0.0,0.0,71,0.00,CLR,SCT,0.00,WeatherDisplay:10.37,2013-08-18 13:40:00,
2013-08-18 06:45:00,67.2,57.1,29.91,West,270,0.0,0.0,70,0.00,CLR,SCT,0.00,WeatherDisplay:10.37,2013-08-18 13:45:00,
2013-08-18 06:50:00,67.8,57.7,29.91,West,270,0.0,0.0,70,0.00,CLR,SCT,0.00,WeatherDisplay:10.37,2013-08-18 13:50:00,
2013-08-18 06:55:00,68.5,58.3,29.91,West,270,0.0,0.0,70,0.00,CLR,SCT,0.00,WeatherDisplay:10.37,2013-08-18 13:55:00,
2013-08-18 07:00:00,69.2,59.4,29.91,West,270,0.0,0.0,71,0.00,CLR,SCT,0.00,WeatherDisplay:10.37,2013-08-18 14:00:00,
2013-08-18 07:05:00,70.0,59.8,29.91,West,270,0.0,0.0,70,0.00,CLR,SCT,0.00,WeatherDisplay:10.37,2013-08-18 14:05:00,
2013-08-18 07:10:00,70.8,60.1,29.91,West,270,0.0,0.0,69,0.00,CLR,SCT,0.00,WeatherDisplay:10.37,2013-08-18 14:10:00,
2013-08-18 07:15:00,71.7,60.2,29.91,West,270,0.0,0.0,67,0.00,CLR,SCT,0.00,WeatherDisplay:10.37,2013-08-18 14:15:00,
2013-08-18 07:20:00,72.6,57.0,29.91,West,270,0.0,0.0,58,0.00,CLR,SCT,0.00,WeatherDisplay:10.37,2013-08-18 14:20:00,
2013-08-18 07:25:00,73.4,58.7,29.92,West,270,0.0,0.0,60,0.00,CLR,SCT,0.00,WeatherDisplay:10.37,2013-08-18 14:25:00,
2013-08-18 07:30:00,74.0,58.3,29.92,West,270,0.0,0.0,58,0.00,CLR,SCT,0.00,WeatherDisplay:10.37,2013-08-18 14:30:00,
2013-08-18 07:35:00,74.7,58.0,29.92,West,270,0.0,0.0,56,0.00,CLR,SCT,0.00,WeatherDisplay:10.37,2013-08-18 14:35:00,
2013-08-18 07:40:00,75.2,57.9,29.92,West,270,0.0,0.0,55,0.00,CLR,SCT,0.00,WeatherDisplay:10.37,2013-08-18 14:40:00,
2013-08-18 07:45:00,75.7,59.4,29.92,West,270,0.0,0.0,57,0.00,CLR,SCT,0.00,WeatherDisplay:10.37,2013-08-18 14:45:00,
2013-08-18 07:50:00,76.0,59.7,29.92,West,270,0.0,0.0,57,0.00,CLR,SCT,0.00,WeatherDisplay:10.37,2013-08-18 14:50:00,
2013-08-18 07:55:00,76.2,58.3,29.92,West,270,0.0,0.0,54,0.00,CLR,SCT,0.00,WeatherDisplay:10.37,2013-08-18 14:55:00,
2013-08-18 08:00:00,76.3,57.4,29.92,West,270,0.0,0.0,52,0.00,CLR,SCT,0.00,WeatherDisplay:10.37,2013-08-18 15:00:00,
2013-08-18 08:05:00,76.6,57.7,29.92,West,270,0.0,0.0,52,0.00,CLR,SCT,0.00,WeatherDisplay:10.37,2013-08-18 15:05:00,
2013-08-18 08:10:00,76.9,56.3,29.92,West,270,0.1,1.2,49,0.00,CLR,SCT,0.00,WeatherDisplay:10.37,2013-08-18 15:10:00,
2013-08-18 08:15:00,77.2,57.1,29.91,West,270,0.0,0.0,50,0.00,CLR,SCT,0.00,WeatherDisplay:10.37,2013-08-18 15:15:00,
2013-08-18 08:20:00,77.6,57.5,29.91,West,270,0.0,0.0,50,0.00,CLR,SCT,0.00,WeatherDisplay:10.37,2013-08-18 15:20:00,
2013-08-18 08:25:00,78.2,56.9,29.91,West,270,0.0,0.0,48,0.00,CLR,SCT,0.00,WeatherDisplay:10.37,2013-08-18 15:25:00,
2013-08-18 08:30:00,78.7,56.8,29.91,West,270,0.0,0.0,47,0.00,CLR,SCT,0.00,WeatherDisplay:10.37,2013-08-18 15:30:00,
2013-08-18 08:35:00,79.1,56.5,29.91,West,270,0.0,0.0,46,0.00,CLR,SCT,0.00,WeatherDisplay:10.37,2013-08-18 15:35:00,
2013-08-18 08:40:00,79.4,56.8,29.91,West,270,0.0,0.0,46,0.00,CLR,SCT,0.00,WeatherDisplay:10.37,2013-08-18 15:40:00,
2013-08-18 08:45:00,79.9,56.7,29.91,West,270,0.0,0.0,45,0.00,CLR,SCT,0.00,WeatherDisplay:10.37,2013-08-18 15:45:00,
2013-08-18 08:50:00,80.5,57.8,29.91,West,270,0.0,1.2,46,0.00,CLR,SCT,0.00,WeatherDisplay:10.37,2013-08-18 15:50:00,
2013-08-18 08:55:00,81.1,55.2,29.91,West,270,0.1,1.2,41,0.00,CLR,SCT,0.00,WeatherDisplay:10.37,2013-08-18 15:55:00,
2013-08-18 09:00:00,81.6,56.9,29.91,West,270,0.1,1.2,43,0.00,CLR,SCT,0.00,WeatherDisplay:10.37,2013-08-18 16:00:00,
2013-08-18 09:05:00,82.1,57.4,29.91,West,273,0.0,0.0,43,0.00,CLR,SCT,0.00,WeatherDisplay:10.37,2013-08-18 16:05:00,
2013-08-18 09:10:00,82.8,56.7,29.91,West,273,0.0,0.0,41,0.00,CLR,SCT,0.00,WeatherDisplay:10.37,2013-08-18 16:10:00,
2013-08-18 09:15:00,83.6,58.1,29.91,WNW,283,0.0,0.0,42,0.00,CLR,SCT,0.00,WeatherDisplay:10.37,2013-08-18 16:15:00,
2013-08-18 09:20:00,84.4,58.1,29.92,ENE,61,1.1,3.5,41,0.00,CLR,SCT,0.00,WeatherDisplay:10.37,2013-08-18 16:20:00,
2013-08-18 09:25:00,84.7,56.3,29.91,ENE,61,1.0,3.5,38,0.00,CLR,SCT,0.00,WeatherDisplay:10.37,2013-08-18 16:25:00,
2013-08-18 09:30:00,85.2,57.4,29.91,ENE,61,0.0,1.0,39,0.00,CLR,SCT,0.00,WeatherDisplay:10.37,2013-08-18 16:30:00,
2013-08-18 09:35:00,85.8,57.3,29.91,ENE,61,0.0,1.2,38,0.00,CLR,SCT,0.00,WeatherDisplay:10.37,2013-08-18 16:35:00,
2013-08-18 09:40:00,86.3,56.2,29.92,ENE,61,0.0,0.0,36,0.00,CLR,SCT,0.00,WeatherDisplay:10.37,2013-08-18 16:40:00,
2013-08-18 09:45:00,86.6,58.0,29.92,ENE,61,0.0,1.0,38,0.00,CLR,SCT,0.00,WeatherDisplay:10.37,2013-08-18 16:45:00,
2013-08-18 09:50:00,87.1,57.7,29.92,ENE,65,0.0,1.2,37,0.00,CLR,SCT,0.00,WeatherDisplay:10.37,2013-08-18 16:50:00,
2013-08-18 09:55:00,87.1,57.7,29.92,ENE,65,0.0,1.0,37,0.00,CLR,SCT,0.00,WeatherDisplay:10.37,2013-08-18 16:55:00,
2013-08-18 10:00:00,87.4,57.2,29.92,ENE,73,0.0,0.0,36,0.00,CLR,SCT,0.00,WeatherDisplay:10.37,2013-08-18 17:00:00,
2013-08-18 10:05:00,87.7,57.4,29.92,East,83,0.1,1.2,36,0.00,CLR,SCT,0.00,WeatherDisplay:10.37,2013-08-18 17:05:00,
2013-08-18 10:10:00,87.5,58.0,29.92,ENE,67,0.0,0.0,37,0.00,CLR,SCT,0.00,WeatherDisplay:10.37,2013-08-18 17:10:00,
2013-08-18 10:15:00,87.5,56.5,29.92,ENE,73,1.0,2.3,35,0.00,CLR,SCT,0.00,WeatherDisplay:10.37,2013-08-18 17:15:00,
2013-08-18 10:20:00,87.6,57.3,29.92,SSE,150,0.1,3.5,36,0.00,CLR,SCT,0.00,WeatherDisplay:10.37,2013-08-18 17:20:00,
2013-08-18 10:25:00,87.8,57.5,29.92,SE,127,0.0,1.2,36,0.00,CLR,SCT,0.00,WeatherDisplay:10.37,2013-08-18 17:25:00,
2013-08-18 10:30:00,88.2,57.1,29.92,SE,130,0.1,1.2,35,0.00,CLR,SCT,0.00,WeatherDisplay:10.37,2013-08-18 17:30:00,
2013-08-18 10:35:00,88.7,55.9,29.92,South,169,0.0,0.0,33,0.00,CLR,SCT,0.00,WeatherDisplay:10.37,2013-08-18 17:35:00,
2013-08-18 10:40:00,89.1,56.2,29.92,SE,138,0.1,1.2,33,0.00,CLR,SCT,0.00,WeatherDisplay:10.37,2013-08-18 17:40:00,
2013-08-18 10:45:00,88.9,56.9,29.92,East,90,0.1,1.2,34,0.00,CLR,SCT,0.00,WeatherDisplay:10.37,2013-08-18 17:45:00,
2013-08-18 10:50:00,89.0,57.0,29.92,East,86,0.0,1.2,34,0.00,CLR,SCT,0.00,WeatherDisplay:10.37,2013-08-18 17:50:00,
2013-08-18 10:55:00,89.4,57.3,29.92,SSE,154,0.1,1.2,34,0.00,CLR,SCT,0.00,WeatherDisplay:10.37,2013-08-18 17:55:00,
2013-08-18 11:00:00,89.8,56.9,29.91,SE,138,0.0,0.0,33,0.00,CLR,SCT,0.00,WeatherDisplay:10.37,2013-08-18 18:00:00,
2013-08-18 11:05:00,90.1,57.1,29.91,South,173,0.3,3.5,33,0.00,CLR,SCT,0.00,WeatherDisplay:10.37,2013-08-18 18:05:00,
2013-08-18 11:10:00,90.4,56.5,29.91,South,173,1.0,4.6,32,0.00,CLR,SCT,0.00,WeatherDisplay:10.37,2013-08-18 18:10:00,
2013-08-18 11:15:00,90.5,57.5,29.91,SSE,163,0.3,3.5,33,0.00,CLR,SCT,0.00,WeatherDisplay:10.37,2013-08-18 18:15:00,
2013-08-18 11:20:00,90.5,55.7,29.91,SSE,168,0.0,1.2,31,0.00,CLR,SCT,0.00,WeatherDisplay:10.37,2013-08-18 18:20:00,
2013-08-18 11:25:00,90.5,56.6,29.91,ENE,71,0.1,1.2,32,0.00,CLR,SCT,0.00,WeatherDisplay:10.37,2013-08-18 18:25:00,
2013-08-18 11:31:00,90.8,56.0,29.91,SW,216,0.6,3.5,31,0.00,CLR,SCT,0.00,WeatherDisplay:10.37,2013-08-18 18:31:00,
2013-08-18 11:36:00,91.0,56.2,29.91,South,189,1.3,3.5,31,0.00,CLR,SCT,0.00,WeatherDisplay:10.37,2013-08-18 18:36:00,
2013-08-18 11:41:00,91.3,56.4,29.91,SSE,148,0.1,0.0,31,0.00,CLR,SCT,0.00,WeatherDisplay:10.37,2013-08-18 18:41:00,
2013-08-18 11:46:00,91.4,55.6,29.90,East,80,0.2,1.2,30,0.00,CLR,SCT,0.00,WeatherDisplay:10.37,2013-08-18 18:46:00,
2013-08-18 11:51:00,91.5,54.8,29.90,NE,54,0.0,1.2,29,0.00,CLR,SCT,0.00,WeatherDisplay:10.37,2013-08-18 18:51:00,
2013-08-18 11:56:00,91.5,53.8,29.90,SSE,154,0.1,1.2,28,0.00,CLR,SCT,0.00,WeatherDisplay:10.37,2013-08-18 18:56:00,
2013-08-18 12:01:00,91.3,53.6,29.90,ENE,76,0.0,0.0,28,0.00,CLR,SCT,0.00,WeatherDisplay:10.37,2013-08-18 19:01:00,
2013-08-18 12:06:00,91.9,55.1,29.89,South,174,2.4,8.1,29,0.00,CLR,SCT,0.00,WeatherDisplay:10.37,2013-08-18 19:06:00,
2013-08-18 12:11:00,92.4,55.5,29.89,SSE,158,0.0,0.0,29,0.00,CLR,SCT,0.00,WeatherDisplay:10.37,2013-08-18 19:11:00,
2013-08-18 12:16:00,92.7,53.8,29.89,South,184,0.1,1.2,27,0.00,CLR,SCT,0.00,WeatherDisplay:10.37,2013-08-18 19:16:00,
2013-08-18 12:21:00,92.5,53.7,29.89,SSE,160,0.1,1.2,27,0.00,CLR,SCT,0.00,WeatherDisplay:10.37,2013-08-18 19:21:00,
2013-08-18 12:26:00,92.6,52.7,29.88,East,90,0.3,3.5,26,0.00,CLR,SCT,0.00,WeatherDisplay:10.37,2013-08-18 19:26:00,
2013-08-18 12:31:00,92.8,53.9,29.88,ENE,61,0.2,2.3,27,0.00,CLR,SCT,0.00,WeatherDisplay:10.37,2013-08-18 19:31:00,
2013-08-18 12:36:00,92.9,50.8,29.88,North,2,0.0,1.2,24,0.00,CLR,SCT,0.00,WeatherDisplay:10.37,2013-08-18 19:36:00,
2013-08-18 12:41:00,93.3,53.3,29.88,SSE,157,0.6,3.5,26,0.00,CLR,SCT,0.00,WeatherDisplay:10.37,2013-08-18 19:41:00,
2013-08-18 12:46:00,93.6,51.4,29.88,WSW,251,1.4,3.5,24,0.00,CLR,SCT,0.00,WeatherDisplay:10.37,2013-08-18 19:46:00,
2013-08-18 12:51:00,93.6,52.5,29.88,ENE,71,2.2,4.6,25,0.00,CLR,SCT,0.00,WeatherDisplay:10.37,2013-08-18 19:51:00,
2013-08-18 12:56:00,93.6,51.4,29.87,ENE,60,2.5,8.1,24,0.00,CLR,SCT,0.00,WeatherDisplay:10.37,2013-08-18 19:56:00,
2013-08-18 13:01:00,93.4,53.4,29.87,ENE,67,1.4,6.9,26,0.00,CLR,SCT,0.00,WeatherDisplay:10.37,2013-08-18 20:01:00,
2013-08-18 13:06:00,93.7,53.6,29.87,South,169,0.1,2.0,26,0.00,CLR,SCT,0.00,WeatherDisplay:10.37,2013-08-18 20:06:00,
2013-08-18 13:11:00,93.9,52.7,29.86,East,96,0.7,3.5,25,0.00,CLR,SCT,0.00,WeatherDisplay:10.37,2013-08-18 20:11:00,
2013-08-18 13:16:00,93.9,52.7,29.86,South,180,0.1,0.0,25,0.00,CLR,SCT,0.00,WeatherDisplay:10.37,2013-08-18 20:16:00,
2013-08-18 13:21:00,94.4,54.2,29.86,NE,44,0.0,2.0,26,0.00,CLR,SCT,0.00,WeatherDisplay:10.37,2013-08-18 20:21:00,
2013-08-18 13:26:00,94.7,52.3,29.86,South,175,1.4,3.5,24,0.00,CLR,SCT,0.00,WeatherDisplay:10.37,2013-08-18 20:26:00,
2013-08-18 13:31:00,94.8,52.4,29.85,SE,133,2.1,4.6,24,0.00,CLR,SCT,0.00,WeatherDisplay:10.37,2013-08-18 20:31:00,
2013-08-18 13:36:00,94.9,51.3,29.85,ENE,71,4.6,6.9,23,0.00,CLR,SCT,0.00,WeatherDisplay:10.37,2013-08-18 20:36:00,
2013-08-18 13:41:00,94.5,51.0,29.85,ENE,61,2.9,8.1,23,0.00,CLR,SCT,0.00,WeatherDisplay:10.37,2013-08-18 20:41:00,
2013-08-18 13:46:00,94.5,52.1,29.85,ENE,69,0.9,3.5,24,0.00,CLR,SCT,0.00,WeatherDisplay:10.37,2013-08-18 20:46:00,
2013-08-18 13:51:00,94.6,53.3,29.85,NW,316,0.1,1.2,25,0.00,CLR,SCT,0.00,WeatherDisplay:10.37,2013-08-18 20:51:00,
2013-08-18 13:56:00,94.4,50.9,29.85,ENE,60,0.2,0.0,23,0.00,CLR,SCT,0.00,WeatherDisplay:10.37,2013-08-18 20:56:00,
2013-08-18 14:01:00,94.5,49.8,29.85,ENE,67,2.0,4.6,22,0.00,CLR,SCT,0.00,WeatherDisplay:10.37,2013-08-18 21:01:00,
2013-08-18 14:06:00,94.6,49.9,29.84,ENE,73,0.1,0.0,22,0.00,CLR,SCT,0.00,WeatherDisplay:10.37,2013-08-18 21:06:00,
2013-08-18 14:11:00,95.1,50.3,29.84,NE,36,0.6,3.5,22,0.00,CLR,SCT,0.00,WeatherDisplay:10.37,2013-08-18 21:11:00,
2013-08-18 14:16:00,95.1,50.3,29.84,NNE,28,0.9,3.5,22,0.00,CLR,SCT,0.00,WeatherDisplay:10.37,2013-08-18 21:16:00,
2013-08-18 14:21:00,95.3,51.6,29.84,ENE,69,0.1,1.2,23,0.00,CLR,SCT,0.00,WeatherDisplay:10.37,2013-08-18 21:21:00,
2013-08-18 14:26:00,95.7,50.8,29.84,East,93,1.4,5.8,22,0.00,CLR,SCT,0.00,WeatherDisplay:10.37,2013-08-18 21:26:00,
2013-08-18 14:31:00,95.3,50.4,29.83,ENE,61,4.6,6.9,22,0.00,CLR,SCT,0.00,WeatherDisplay:10.37,2013-08-18 21:31:00,
2013-08-18 14:36:00,94.4,50.9,29.83,ENE,73,0.5,3.0,23,0.00,CLR,SCT,0.00,WeatherDisplay:10.37,2013-08-18 21:36:00,
2013-08-18 14:41:00,93.9,49.3,29.83,NE,41,0.0,1.2,22,0.00,CLR,SCT,0.00,WeatherDisplay:10.37,2013-08-18 21:41:00,
2013-08-18 14:46:00,93.7,50.3,29.83,NE,42,1.6,3.5,23,0.00,CLR,SCT,0.00,WeatherDisplay:10.37,2013-08-18 21:46:00,
2013-08-18 14:51:00,92.6,53.7,29.82,WNW,300,4.3,4.6,27,0.00,CLR,SCT,0.00,WeatherDisplay:10.37,2013-08-18 21:51:00,
2013-08-18 14:56:00,91.4,53.7,29.82,West,268,3.3,6.9,28,0.00,CLR,SCT,0.00,WeatherDisplay:10.37,2013-08-18 21:56:00,
2013-08-18 15:01:00,90.4,52.9,29.82,WNW,299,2.1,6.0,28,0.00,CLR,SCT,0.00,WeatherDisplay:10.37,2013-08-18 22:01:00,
2013-08-18 15:06:00,90.0,52.5,29.82,NNW,347,1.7,3.5,28,0.00,CLR,SCT,0.00,WeatherDisplay:10.37,2013-08-18 22:06:00,
2013-08-18 15:11:00,89.9,52.4,29.82,NE,46,0.1,1.2,28,0.00,CLR,SCT,0.00,WeatherDisplay:10.37,2013-08-18 22:11:00,
2013-08-18 15:16:00,90.0,53.5,29.82,NE,46,0.0,0.0,29,0.00,CLR,SCT,0.00,WeatherDisplay:10.37,2013-08-18 22:16:00,
2013-08-18 15:21:00,89.8,53.3,29.83,WNW,292,0.1,1.2,29,0.00,CLR,SCT,0.00,WeatherDisplay:10.37,2013-08-18 22:21:00,
2013-08-18 15:26:00,89.6,53.1,29.83,SSW,193,2.0,3.5,29,0.00,CLR,SCT,0.00,WeatherDisplay:10.37,2013-08-18 22:26:00,
2013-08-18 15:31:00,89.0,51.7,29.83,South,190,7.1,9.2,28,0.00,CLR,SCT,0.00,WeatherDisplay:10.37,2013-08-18 22:31:00,
2013-08-18 15:36:00,88.2,51.9,29.83,SSW,197,2.5,9.2,29,0.00,CLR,SCT,0.00,WeatherDisplay:10.37,2013-08-18 22:36:00,
2013-08-18 15:41:00,87.7,55.0,29.83,SW,226,4.0,5.8,33,0.00,CLR,SCT,0.00,WeatherDisplay:10.37,2013-08-18 22:41:00,
2013-08-18 15:46:00,86.8,55.1,29.82,SW,229,1.4,8.1,34,0.00,CLR,SCT,0.00,WeatherDisplay:10.37,2013-08-18 22:46:00,
2013-08-18 15:51:00,86.6,52.4,29.82,West,267,1.0,3.5,31,0.00,CLR,SCT,0.00,WeatherDisplay:10.37,2013-08-18 22:51:00,
2013-08-18 15:56:00,87.0,53.6,29.82,West,267,0.0,0.0,32,0.00,CLR,SCT,0.00,WeatherDisplay:10.37,2013-08-18 22:56:00,
2013-08-18 16:01:00,87.4,60.1,29.82,WSW,249,0.2,3.5,40,0.00,CLR,SCT,0.00,WeatherDisplay:10.37,2013-08-18 23:01:00,
2013-08-18 16:06:00,87.3,53.8,29.82,West,269,1.0,5.8,32,0.00,CLR,SCT,0.00,WeatherDisplay:10.37,2013-08-18 23:06:00,
2013-08-18 16:11:00,86.8,62.3,29.83,South,187,1.3,1.3,44,0.00,CLR,SCT,0.00,WeatherDisplay:10.37,2013-08-18 23:11:00,
2013-08-18 16:16:00,83.4,59.2,29.83,South,182,8.4,11.5,44,0.00,CLR,SCT,0.00,WeatherDisplay:10.37,2013-08-18 23:16:00,
2013-08-18 16:21:00,80.5,58.4,29.83,South,173,5.0,6.9,47,0.01,RA,SCT,0.01,WeatherDisplay:10.37,2013-08-18 23:21:00,
2013-08-18 16:26:00,77.7,57.0,29.84,SSE,160,1.9,5.8,49,0.02,RA,SCT,0.02,WeatherDisplay:10.37,2013-08-18 23:26:00,
2013-08-18 16:31:00,75.0,56.7,29.84,South,180,1.9,5.8,53,0.06,RA,SCT,0.07,WeatherDisplay:10.37,2013-08-18 23:31:00,
2013-08-18 16:36:00,73.5,56.3,29.86,South,171,4.9,25.3,55,0.12,RA,SCT,0.15,WeatherDisplay:10.37,2013-08-18 23:36:00,
2013-08-18 16:41:00,74.0,55.8,29.85,ENE,65,7.0,15.0,53,0.30,RA,SCT,0.33,WeatherDisplay:10.37,2013-08-18 23:41:00,
2013-08-18 16:46:00,74.9,57.6,29.85,NNE,30,3.4,6.9,55,0.47,RA,SCT,0.48,WeatherDisplay:10.37,2013-08-18 23:46:00,
2013-08-18 16:51:00,73.0,55.9,29.83,ENE,57,8.3,11.5,55,0.57,RA,SCT,0.57,WeatherDisplay:10.37,2013-08-18 23:51:00,
2013-08-18 16:56:00,73.1,58.4,29.83,NNE,24,1.5,5.8,60,0.59,RA,SCT,0.59,WeatherDisplay:10.37,2013-08-18 23:56:00,
2013-08-18 17:01:00,72.0,55.9,29.83,NNW,339,0.3,1.2,57,0.63,RA,SCT,0.63,WeatherDisplay:10.37,2013-08-19 00:01:00,
2013-08-18 17:06:00,71.2,59.7,29.83,SSW,205,0.1,1.2,67,0.64,RA,SCT,0.64,WeatherDisplay:10.37,2013-08-19 00:06:00,
2013-08-18 17:11:00,71.0,60.7,29.83,WSW,245,0.1,0.0,70,0.64,RA,SCT,0.64,WeatherDisplay:10.37,2013-08-19 00:11:00,
2013-08-18 17:16:00,71.5,62.8,29.83,West,267,0.2,2.3,74,0.64,CLR,SCT,0.64,WeatherDisplay:10.37,2013-08-19 00:16:00,
2013-08-18 17:21:00,73.1,63.5,29.83,West,269,1.2,4.6,72,0.63,CLR,SCT,0.64,WeatherDisplay:10.37,2013-08-19 00:21:00,
2013-08-18 17:26:00,75.3,62.7,29.83,West,262,2.9,6.9,65,0.62,CLR,SCT,0.64,WeatherDisplay:10.37,2013-08-19 00:26:00,
2013-08-18 17:31:00,76.8,59.4,29.83,NW,317,4.3,7.0,55,0.59,CLR,SCT,0.64,WeatherDisplay:10.37,2013-08-19 00:31:00,
2013-08-18 17:36:00,77.5,59.0,29.83,NW,311,5.7,8.1,53,0.54,CLR,SCT,0.64,WeatherDisplay:10.37,2013-08-19 00:36:00,
2013-08-18 17:41:00,78.3,58.1,29.83,NW,319,3.9,9.2,50,0.36,CLR,SCT,0.64,WeatherDisplay:10.37,2013-08-19 00:41:00,
2013-08-18 17:46:00,78.9,57.5,29.83,WNW,297,4.4,10.4,48,0.21,CLR,SCT,0.64,WeatherDisplay:10.37,2013-08-19 00:46:00,
2013-08-18 17:51:00,79.3,57.9,29.83,WNW,303,2.0,5.8,48,0.08,CLR,SCT,0.64,WeatherDisplay:10.37,2013-08-19 00:51:00,
2013-08-18 17:56:00,79.1,57.7,29.83,West,280,4.0,8.1,48,0.05,CLR,SCT,0.64,WeatherDisplay:10.37,2013-08-19 00:56:00,
2013-08-18 18:01:00,79.1,57.1,29.83,NW,320,3.3,8.1,47,0.02,CLR,SCT,0.64,WeatherDisplay:10.37,2013-08-19 01:01:00,
2013-08-18 18:06:00,79.3,56.1,29.83,WNW,296,2.9,6.9,45,0.00,CLR,SCT,0.64,WeatherDisplay:10.37,2013-08-19 01:06:00,
2013-08-18 18:11:00,79.2,56.6,29.83,West,275,1.0,5.8,46,0.00,CLR,SCT,0.64,WeatherDisplay:10.37,2013-08-19 01:11:00,
2013-08-18 18:16:00,79.3,56.1,29.83,West,271,0.1,3.5,45,0.00,CLR,SCT,0.64,WeatherDisplay:10.37,2013-08-19 01:16:00,
2013-08-18 18:21:00,79.3,56.7,29.84,West,267,0.0,0.0,46,0.00,CLR,SCT,0.64,WeatherDisplay:10.37,2013-08-19 01:21:00,
2013-08-18 18:26:00,78.9,59.2,29.85,ENE,68,1.8,3.5,51,0.00,CLR,SCT,0.64,WeatherDisplay:10.37,2013-08-19 01:26:00,
2013-08-18 18:31:00,78.1,57.9,29.86,ENE,69,3.9,8.1,50,0.00,CLR,SCT,0.64,WeatherDisplay:10.37,2013-08-19 01:31:00,
2013-08-18 18:36:00,78.3,57.0,29.87,ENE,62,1.1,6.9,48,0.00,CLR,SCT,0.64,WeatherDisplay:10.37,2013-08-19 01:36:00,
2013-08-18 18:41:00,78.3,57.6,29.87,ENE,61,0.0,0.0,49,0.00,CLR,SCT,0.64,WeatherDisplay:10.37,2013-08-19 01:41:00,
2013-08-18 18:46:00,78.3,57.6,29.88,ENE,61,0.3,1.2,49,0.00,CLR,SCT,0.64,WeatherDisplay:10.37,2013-08-19 01:46:00,
2013-08-18 18:51:00,78.3,57.0,29.89,ENE,61,0.0,0.0,48,0.00,CLR,SCT,0.64,WeatherDisplay:10.37,2013-08-19 01:51:00,
2013-08-18 18:56:00,78.3,57.0,29.89,ENE,61,0.0,0.0,48,0.00,CLR,SCT,0.64,WeatherDisplay:10.37,2013-08-19 01:56:00,
2013-08-18 19:01:00,78.3,57.6,29.90,ENE,61,0.0,0.0,49,0.00,CLR,SCT,0.64,WeatherDisplay:10.37,2013-08-19 02:01:00,
2013-08-18 19:07:00,78.2,58.6,29.90,ENE,61,0.0,0.0,51,0.00,CLR,SCT,0.64,WeatherDisplay:10.37,2013-08-19 02:07:00,
2013-08-18 19:12:00,77.9,58.9,29.90,East,99,0.0,1.2,52,0.00,CLR,SCT,0.64,WeatherDisplay:10.37,2013-08-19 02:12:00,
2013-08-18 19:17:00,77.5,59.5,29.90,SSW,202,0.0,0.0,54,0.00,CLR,SCT,0.64,WeatherDisplay:10.37,2013-08-19 02:17:00,
2013-08-18 19:22:00,77.1,58.6,29.90,SSW,202,0.0,0.0,53,0.00,CLR,SCT,0.64,WeatherDisplay:10.37,2013-08-19 02:22:00,
2013-08-18 19:27:00,76.8,59.4,29.91,SSW,202,0.0,0.0,55,0.00,CLR,SCT,0.64,WeatherDisplay:10.37,2013-08-19 02:27:00,
2013-08-18 19:32:00,76.4,59.0,29.91,SSW,202,0.5,3.5,55,0.00,CLR,SCT,0.64,WeatherDisplay:10.37,2013-08-19 02:32:00,
2013-08-18 19:37:00,76.1,58.2,29.91,SSW,202,0.0,1.2,54,0.00,CLR,SCT,0.64,WeatherDisplay:10.37,2013-08-19 02:37:00,
2013-08-18 19:42:00,75.9,58.1,29.91,SSW,202,0.8,3.5,54,0.00,CLR,SCT,0.64,WeatherDisplay:10.37,2013-08-19 02:42:00,
2013-08-18 19:47:00,75.8,57.4,29.91,SSW,197,1.2,3.5,53,0.00,CLR,SCT,0.64,WeatherDisplay:10.37,2013-08-19 02:47:00,
2013-08-18 19:52:00,75.8,57.4,29.91,SSW,197,0.0,0.0,53,0.00,CLR,SCT,0.64,WeatherDisplay:10.37,2013-08-19 02:52:00,
2013-08-18 19:57:00,75.7,57.9,29.91,SSW,198,0.0,1.2,54,0.00,CLR,SCT,0.64,WeatherDisplay:10.37,2013-08-19 02:57:00,
2013-08-18 20:02:00,75.5,59.2,29.91,SSW,198,0.0,0.0,57,0.00,CLR,SCT,0.64,WeatherDisplay:10.37,2013-08-19 03:02:00,
2013-08-18 20:07:00,75.2,58.9,29.91,SSW,198,0.0,0.0,57,0.00,CLR,SCT,0.64,WeatherDisplay:10.37,2013-08-19 03:07:00,
2013-08-18 20:12:00,75.0,59.2,29.92,SSW,198,0.0,0.0,58,0.00,CLR,SCT,0.64,WeatherDisplay:10.37,2013-08-19 03:12:00,
2013-08-18 20:17:00,74.8,59.5,29.92,SSW,198,0.0,0.0,59,0.00,CLR,SCT,0.64,WeatherDisplay:10.37,2013-08-19 03:17:00,
2013-08-18 20:22:00,74.8,59.5,29.92,SSW,197,0.1,0.0,59,0.00,CLR,SCT,0.64,WeatherDisplay:10.37,2013-08-19 03:22:00,
2013-08-18 20:27:00,74.9,58.1,29.92,SSW,198,0.3,2.3,56,0.00,CLR,SCT,0.64,WeatherDisplay:10.37,2013-08-19 03:27:00,
2013-08-18 20:32:00,75.1,58.8,29.92,SSW,207,0.0,3.5,57,0.00,CLR,SCT,0.64,WeatherDisplay:10.37,2013-08-19 03:32:00,
2013-08-18 20:37:00,75.1,58.8,29.92,SW,219,0.0,1.0,57,0.00,CLR,SCT,0.64,WeatherDisplay:10.37,2013-08-19 03:37:00,
2013-08-18 20:42:00,75.2,57.4,29.92,SW,227,0.5,3.5,54,0.00,CLR,SCT,0.64,WeatherDisplay:10.37,2013-08-19 03:42:00,
2013-08-18 20:47:00,75.3,58.0,29.91,SW,227,0.0,0.0,55,0.00,CLR,SCT,0.64,WeatherDisplay:10.37,2013-08-19 03:47:00,
2013-08-18 20:52:00,75.2,57.4,29.91,SW,227,0.0,0.0,54,0.00,CLR,SCT,0.64,WeatherDisplay:10.37,2013-08-19 03:52:00,
2013-08-18 20:57:00,75.1,58.3,29.91,SW,227,0.0,0.0,56,0.00,CLR,SCT,0.64,WeatherDisplay:10.37,2013-08-19 03:57:00,
2013-08-18 21:01:00,75.0,57.7,29.91,SW,227,0.0,0.0,55,0.00,CLR,SCT,0.64,WeatherDisplay:10.37,2013-08-19 04:01:00,
2013-08-18 21:02:00,75.0,58.2,29.91,SW,227,0.0,0.0,56,0.00,CLR,SCT,0.64,WeatherDisplay:10.37,2013-08-19 04:02:00,
2013-08-18 21:05:00,74.9,58.1,29.91,SW,227,0.0,0.0,56,0.00,CLR,SCT,0.64,WeatherDisplay:10.37,2013-08-19 04:05:00,
2013-08-18 21:06:00,74.9,58.6,29.91,SW,227,0.0,0.0,57,0.00,CLR,SCT,0.64,WeatherDisplay:10.37,2013-08-19 04:06:00,
2013-08-18 21:07:00,74.9,58.6,29.91,SW,227,0.0,0.0,57,0.00,CLR,SCT,0.64,WeatherDisplay:10.37,2013-08-19 04:07:00,
2013-08-18 21:12:00,74.8,57.5,29.91,SW,227,0.0,0.0,55,0.00,CLR,SCT,0.64,WeatherDisplay:10.37,2013-08-19 04:12:00,
2013-08-18 21:17:00,74.8,57.0,29.91,SW,227,0.0,1.2,54,0.00,CLR,SCT,0.64,WeatherDisplay:10.37,2013-08-19 04:17:00,
2013-08-18 21:22:00,75.0,56.2,29.91,SW,227,0.1,2.3,52,0.00,CLR,SCT,0.64,WeatherDisplay:10.37,2013-08-19 04:22:00,
2013-08-18 21:27:00,75.3,55.9,29.91,SW,227,0.0,0.0,51,0.00,CLR,SCT,0.64,WeatherDisplay:10.37,2013-08-19 04:27:00,
2013-08-18 21:32:00,75.8,55.3,29.91,SW,229,0.3,3.5,49,0.00,CLR,SCT,0.64,WeatherDisplay:10.37,2013-08-19 04:32:00,
2013-08-18 21:37:00,76.4,54.1,29.91,SW,230,0.2,1.2,46,0.00,CLR,SCT,0.64,WeatherDisplay:10.37,2013-08-19 04:37:00,
2013-08-18 21:42:00,76.7,54.4,29.91,SW,230,0.4,2.3,46,0.00,CLR,SCT,0.64,WeatherDisplay:10.37,2013-08-19 04:42:00,
2013-08-18 21:47:00,76.9,54.5,29.91,SW,231,0.0,0.0,46,0.00,CLR,SCT,0.64,WeatherDisplay:10.37,2013-08-19 04:47:00,
2013-08-18 21:52:00,76.9,55.1,29.91,SW,231,0.0,0.0,47,0.00,CLR,SCT,0.64,WeatherDisplay:10.37,2013-08-19 04:52:00,
2013-08-18 21:57:00,76.7,55.0,29.91,SW,231,0.0,0.0,47,0.00,CLR,SCT,0.64,WeatherDisplay:10.37,2013-08-19 04:57:00,
2013-08-18 22:02:00,76.4,55.8,29.91,SW,231,0.0,0.0,49,0.00,CLR,SCT,0.64,WeatherDisplay:10.37,2013-08-19 05:02:00,
2013-08-18 22:07:00,75.7,55.7,29.92,SW,231,0.0,0.0,50,0.00,CLR,SCT,0.64,WeatherDisplay:10.37,2013-08-19 05:07:00,
2013-08-18 22:12:00,75.3,55.9,29.91,SW,231,0.4,3.5,51,0.00,CLR,SCT,0.64,WeatherDisplay:10.37,2013-08-19 05:12:00,
2013-08-18 22:17:00,75.1,55.7,29.91,SW,231,0.0,1.2,51,0.00,CLR,SCT,0.64,WeatherDisplay:10.37,2013-08-19 05:17:00,
2013-08-18 22:22:00,75.0,55.6,29.91,SW,231,0.0,0.0,51,0.00,CLR,SCT,0.64,WeatherDisplay:10.37,2013-08-19 05:22:00,
2013-08-18 22:27:00,74.8,55.5,29.91,SW,231,0.1,1.2,51,0.00,CLR,SCT,0.64,WeatherDisplay:10.37,2013-08-19 05:27:00,
2013-08-18 22:32:00,74.7,54.3,29.91,SW,231,0.0,0.0,49,0.00,CLR,SCT,0.64,WeatherDisplay:10.37,2013-08-19 05:32:00,
2013-08-18 22:37:00,75.0,54.0,29.91,SW,231,0.5,2.3,48,0.00,CLR,SCT,0.64,WeatherDisplay:10.37,2013-08-19 05:37:00,
2013-08-18 22:42:00,75.1,55.2,29.91,SW,231,0.0,0.0,50,0.00,CLR,SCT,0.64,WeatherDisplay:10.37,2013-08-19 05:42:00,
2013-08-18 22:47:00,75.0,55.1,29.91,SW,231,0.0,0.0,50,0.00,CLR,SCT,0.64,WeatherDisplay:10.37,2013-08-19 05:47:00,
2013-08-18 22:52:00,74.9,55.6,29.92,SW,231,0.0,0.0,51,0.00,CLR,SCT,0.64,WeatherDisplay:10.37,2013-08-19 05:52:00,
2013-08-18 22:57:00,74.6,55.8,29.92,SW,231,0.0,0.0,52,0.00,CLR,SCT,0.64,WeatherDisplay:10.37,2013-08-19 05:57:00,
2013-08-18 23:02:00,74.2,56.5,29.92,SW,231,0.0,0.0,54,0.00,CLR,SCT,0.64,WeatherDisplay:10.37,2013-08-19 06:02:00,
2013-08-18 23:07:00,73.7,57.0,29.92,SW,231,0.0,0.0,56,0.00,CLR,SCT,0.64,WeatherDisplay:10.37,2013-08-19 06:07:00,
2013-08-18 23:12:00,73.1,57.0,29.92,SW,231,0.0,0.0,57,0.00,CLR,SCT,0.64,WeatherDisplay:10.37,2013-08-19 06:12:00,
2013-08-18 23:17:00,72.6,58.4,29.92,SW,231,0.0,0.0,61,0.00,CLR,SCT,0.64,WeatherDisplay:10.37,2013-08-19 06:17:00,
2013-08-18 23:22:00,72.1,58.8,29.92,SW,231,0.0,0.0,63,0.00,CLR,SCT,0.64,WeatherDisplay:10.37,2013-08-19 06:22:00,
2013-08-18 23:27:00,71.7,58.9,29.93,SW,231,0.0,0.0,64,0.00,CLR,SCT,0.64,WeatherDisplay:10.37,2013-08-19 06:27:00,
2013-08-18 23:32:00,71.5,58.7,29.93,SW,231,0.0,0.0,64,0.00,CLR,SCT,0.64,WeatherDisplay:10.37,2013-08-19 06:32:00,
2013-08-18 23:37:00,71.3,59.8,29.93,SW,231,0.0,0.0,67,0.00,CLR,SCT,0.64,WeatherDisplay:10.37,2013-08-19 06:37:00,
2013-08-18 23:42:00,71.0,60.7,29.93,SW,231,0.0,0.0,70,0.00,CLR,SCT,0.64,WeatherDisplay:10.37,2013-08-19 06:42:00,
2013-08-18 23:47:00,70.7,59.6,29.93,SW,231,0.0,1.2,68,0.00,CLR,SCT,0.64,WeatherDisplay:10.37,2013-08-19 06:47:00,
2013-08-18 23:52:00,70.7,59.6,29.93,SW,231,0.0,0.0,68,0.00,CLR,SCT,0.64,WeatherDisplay:10.37,2013-08-19 06:52:00,
2013-08-18 23:57:00,70.8,58.9,29.93,SW,231,0.0,0.0,66,0.00,CLR,SCT,0.64,WeatherDisplay:10.37,2013-08-19 06:57:00,